Location: Aranbee
(34.0885°N, 118.2342°W)
Time: 05:13:25
(UTC+00:00)

deb Explorer IX - Pass Details

Date: 29 November 2020
Orbit: 536 x 1104 km, 38.8° (Epoch: 17 January)

Event Time Altitude Azimuth Distance (km) Brightness Sun altitude
Rises 01:15:51 0° 261° (W) 3,565 ? -6.9°
Reaches altitude 10° 01:18:40 10° 265° (W) 2,529 ? -7.5°
Maximum altitude 01:24:35 63° 346° (NNW) 860 ? -8.6°
Enters shadow 01:29:13 12° 67° (ENE) 2,011 ? -9.5°
